[情報] 鍋貼的朋友週記#40

作者
看板 Hearthstone
時間
留言 71則留言,31人參與討論
推噓 19 ( 26推 7噓 38→ )
圖文好讀版http://bit.ly/2rdFdjK (這禮拜出差回來時差問題被我拖稿一天惹) -- 1. 爐石全球決賽冠軍 – VK.Liooon 她創下兩個記錄: (1) 中國個人首次在Blizzcon拿下冠軍(團體有去年的HGG) (2) 第一次有女性贏得爐石主要賽事冠軍 推特上非常多的女性選手、主播出來恭喜她: https://i.imgur.com/xffbvRW.png
還有 Sonicfox、前暴雪總裁也有轉貼 相對於人上人聯盟,中國今年的制度相對開放,所以VK.Liooon以平民身分 一路拿到世界決賽冠軍獲得了更多人的支持(推特上也有不少人直接抨擊人 上人聯盟) 2. Feno世界賽心火牧再度自爆 https://www.twitch.tv/playhearthstone/clip/SincereSpookyCrowCorgiDerp 兩次都是關鍵局讓Feno直接被淘汰。 https://i.imgur.com/Vm5tyZM.png
Choke的意思是窒息、停止呼吸,這邊是表達軟手,Choker的另外一個意思 是項鍊,所以歐洲幹話王Sintolol也發推了: https://i.imgur.com/EWBBqwb.png
3. 世界賽選手的2019巡迴賽+職業賽統計勝率: https://i.imgur.com/Nls6l00.png
可以看出 Tom 的勝率比其他人高非常多。 4. 爐石世界決賽twitch觀看人數最高58689人,創下新低: 歷來世界賽最高觀看人數都是十萬人以上,這次少了至少一半以上。 5. 一直會出現在背景的Muzzy: https://i.imgur.com/o6Ulh0c.png
https://i.imgur.com/D8fypm7.png
(他不是選手或是賽評) 美國黑人是你? 6. 美洲區法神Apxvoid跳槽FB,之後只會偶爾在twitch上實況。 7. 日本人上人Glory開始開實況了:https://www.twitch.tv/glory__hs 不知道會持續多久(hunterace持續了兩個禮拜) 8. 聰哥Blitzchung加入Tempo Storm戰隊,Tempo Storm直接把新聞置頂: https://i.imgur.com/chQN9NT.png
9. 暴雪總裁J. Allen Brack在Blizzcon的開頭演講針對爐石電競的事情道 歉。 https://youtu.be/_VdHcTB_J4Y
這是一個非常小心的演講,其中沒有提到任何一次「香港」或是「中國」。 因為非常的小心,所以聽完之後會不知道他是對誰演講或是確切的想要表達 什麼事情,也所以在youtube上獲得了大量負評。 當天下午,PCGamer針對聰哥事件訪問暴雪總裁,同篇報導中也有聯絡到偷米: https://www.pcgamer.com/blizzard-president-clarifies-decision-to- ban-hearthstone-player-and-two-casters-over-hong-kong-controversy/ 偷米:(暴雪總裁在演講裡說的)表達自己的意見就是我在播報時候做的。 為什麼我還是要被Ban六個月? 暴雪總裁: (1) 我們支持言論自由,但是主播、選手必須於專注於比賽內容,不會更 改最終判決。 (2) 並未授權網易的中國微博內容。 -- ※ 發信站: 批踢踢實業坊(ptt.cc), 來自: 202.89.121.110 (香港) ※ 文章網址: https://www.ptt.cc/bbs/Hearthstone/M.1573033313.A.B4F.html
1Fyowhatsupsli: Choke是從噎到嗆到來的吧?原本要吃結果噎到,引申 11/06 17:48
2Fyowhatsupsli: 理解為軟手? 11/06 17:48
3Flookatme921: 推 11/06 17:49
4FKrauserII: 一樓邏輯語言大師 LUL 11/06 17:53
5FFino5566: 我一直講 接了工作 就要盡責 11/06 17:54
6FFino5566: 主播訪問到不喜歡的人 講兩句話直接叫導播切 也是 11/06 17:55
7FFino5566: 表達自己意見 11/06 17:55
8Fmoney990160: 被Ban6個月 先用盜播卡通來壓壓驚 11/06 17:57
※ 編輯: anjohn (202.89.121.110 香港), 11/06/2019 18:01:51
9Fkuonet: choke是軟手的意思沒錯 11/06 18:02
10Fhbk20491: 幹 為啥頒獎Muzzy會在後面 XD 不是只有選手能站後面 11/06 18:10
11Fcrash121: 偷米好了啦 不覺得自己有錯 播其他遊戲有種也這樣搞 11/06 18:16
12Fcrash121: 看看會不會被封殺 對不對不是你自己講的 11/06 18:16
13FSunofgod: 偷米引導他說那些話被BAN我覺得沒啥好哭哭的 11/06 18:22
14FSunofgod: 偷米就只是想塑造自己是個小平民被大公司迫害的形象 11/06 18:22
15FSunofgod: 易先生真的才是整件事情的最大受害者 11/06 18:22
16FSunofgod: 如果今天只有偷米一人 那你要塑造這種形象也OK 11/06 18:23
17FSunofgod: 但今天隔壁有一個最無辜的易先生受到牽連我就只覺得 11/06 18:24
18FSunofgod: 偷米這操作看了真的很反感 11/06 18:24
19Fdaniel0527: 易先生自己都沒反感了你反感啥 11/06 18:31
20Fjimmyjou2006: A:我就做工作,為何被ban。 B:處理不夠好,專業度 11/06 19:01
21Fjimmyjou2006: 不足反省 11/06 19:01
22Flittleoldman: 反感個屁 導播把畫面交給主播賽評不就同意了 11/06 19:04
23Flittleoldman: 就算退一步來說 導播認為不妥也可以馬上切畫面 11/06 19:05
24Fdeweili: 反感個屁 畫面過來就是要讓他表達了啊 11/06 19:09
25FNamukab: 中國:我尊重你的言論自由 但你敢亂講話 我會抓你 11/06 19:29
26Fsilver0717: 難道tommy要說閉嘴不要講嗎,導播都切了不然要怎樣 11/06 19:32
27Fsilver0717: 典型的在旁邊很會講,遇到事情吱吱嗚嗚 11/06 19:34
28Flaladiladi: 放著自己講 跟引導就兩件事 11/06 19:37
29Flaladiladi: 不然聰哥講完再聊點爐石也行啊 11/06 19:37
30Fsgps: 13樓這種觀念真的讓人滿想吐的 11/06 19:38
31Fdemonik: 13樓的觀念跟燙很接近啊,都是偷米該罰,呂斯貝 11/06 19:39
32Fnwd4e9cd: 好了啦 喊8個字到底又怎麼樣 沒有髒字也沒有18禁 11/06 19:41
33Fsilver0717: 聰哥遲早會講,有沒有引導有差嗎,他都穿那樣了 11/06 19:45
34Fsilver0717: btw.導播既然都切過來了不就是一種引導? 11/06 19:47
35FNamukab: 偷米這樣都可以被黑?笑死 那八個字錯在哪? 11/06 20:07
36Flookatme921: 隔壁名人堂選手蒙面比手勢挺香港,啥事都沒,結果 11/06 20:20
37Flookatme921: 這裡在糾結那八個字。 11/06 20:20
38Ftoto0327: 好的賽評絕對可以在那種場合做得更好,而不是讓公司 11/06 20:22
39Ftoto0327: 蒙受形象與利潤損失,更不會主動聯繫PCGamer哭哭, 11/06 20:22
40Ftoto0327: 讓人感覺想令公司難堪 11/06 20:22
41Ftoto0327: 事情發生後開實況的聊天室內容,也不見如易先生懺悔 11/06 20:24
42FFino5566: 選手採訪環節是給選手發表的場合 不是主播賽評 11/06 20:24
43Ftoto0327: 我是台暴就找易先生回去,不會找偷米回去砸自己腳 11/06 20:25
44FFino5566: 想表達自己 自己受訪的時候表達 不是採訪別人的時 11/06 20:26
45FFino5566: 候 11/06 20:26
46Fdemonlogy: 覺青還帶風向啊,不就說了錯在場合裝看不懂 11/06 20:26
47Ftoto0327: 已經出社會的就知道,業界離開前公司還批評是大忌 11/06 20:28
48Ftoto0327: 很容易會被同業一起封殺 11/06 20:28
49FFino5566: 聰哥跟易早說過自己行為有不妥 11/06 20:33
50FFino5566: 有預想到自己會受懲處/事後接受懲處 11/06 20:33
51FFino5566: 沒有一直找藉口合理自己的脫序行為 11/06 20:33
52Fxkiller1900: 別讓支畜不開心 11/06 20:40
53Fjason751231: ㄧ個英雄 ㄧ個傻屌 ㄧ個倒霉 11/06 21:34
54Fhasroten: 好了拉 拉雞暴雪 11/06 22:28
55Fdaniel0527: 嘻嘻連台暴找回去這種鬼話你都說得出來了 11/06 22:38
56Fthefirstegg: 並未授權網易的中國微博內容<---所以共雪被吃了大豆 11/06 22:50
57Fthefirstegg: 腐也不敢對人家吭一聲? 有夠卑微的美國公司 11/06 22:50
58Fthefirstegg: 選手在賽後講話第一時間被封殺(人上人禁賽一年等於 11/06 22:59
59Fthefirstegg: 叫你退出爐石啦),結果另一邊直接打著官方的名號發 11/06 22:59
60Fthefirstegg: 政治文,沒事兒? 11/06 22:59
61Fttn851227: 好了辣偷米 你要當烈士就像聰哥一樣瀟灑一點 11/06 23:30
62Fttn851227: 在那邊哭哭不如趕快趁木棉花在金字塔裡多放一點動畫 11/06 23:31
63Fzxcasd328: 暴雪爸爸是無辜的 畢竟OO歸OO嘛 11/07 01:33
64Ffoxeshen: 大概像你在爐石板講無關爐石的會吃水桶一樣吧? 11/07 08:55
65FSunofgod: 聰哥沒當烈士阿 繼續當爐石選手耶.... 11/07 10:15
66FNamukab: 聰哥是忍辱負重 11/07 10:37
67Fdark0204678: 偷米最多問題就是對聰哥行為的超譯好嗎 他只是憑藉 11/07 17:17
68Fdark0204678: 對聰哥的了解先一步主觀認定他準備說的事情 並不是 11/07 17:17
69Fdark0204678: 刻意引導的 11/07 17:17
70Fjames54333: 在那邊說聰哥遲早會講zzz 聰哥訪問都說原本沒要講了 11/07 22:08
71Fsolidus: 現在流行直接到沒什麼推的文章洗風向嗎 11/07 23:09

爐石戰記 看板熱門文章

11 [聯賽] HGG 2019 W1D3
35 hearthstone Jotarun 2019/11/18 00:34:04

最新熱門文章

103 [外絮] Rush 推特
106 lol abx310492 2019/11/19 19:19:57